Weather reports worldwide

Advertisment
Leeuwarden, Netherlands (6270): temperature & dewpoint: 10.10.2019 05:00:00 - 16.10.2019 05:00:00 (CEST)Leeuwarden, Netherlands (6270): temperature 5cm: 10.10.2019 05:00:00 - 16.10.2019 05:00:00 (CEST)Leeuwarden, Netherlands (6270): wind speed & gusts: 10.10.2019 05:00:00 - 16.10.2019 05:00:00 (CEST)Leeuwarden, Netherlands (6270): wind direction: 10.10.2019 05:00:00 - 16.10.2019 05:00:00 (CEST)Leeuwarden, Netherlands (6270): reduced air pressure: 10.10.2019 05:00:00 - 16.10.2019 05:00:00 (CEST)Leeuwarden, Netherlands (6270): visibility: 10.10.2019 05:00:00 - 16.10.2019 05:00:00 (CEST)Leeuwarden, Netherlands (6270): precipitation: 10.10.2019 05:00:00 - 16.10.2019 05:00:00 (CEST)
Date & Time tt [°C] td [°C] tt 5cm [°C] ff [km/h] ff [kn] fx [km/h] fx [kn] dd ppp [hPa] vv [km] rr [mm]
16.10.2019 05:00:00 12,8 11,9 12,5 11 6 25 14 SSW 1006,7 6 0,0
16.10.2019 04:00:00 12,8 12,2 12,4 8 4 14 8 SSW 1006,8 8 0,0
16.10.2019 03:00:00 12,9 12,6 12,7 9 5 14 8 SSW 1006,7 3,3 0,0
16.10.2019 02:00:00 12,7 12,5 12,5 11 6 18 10 SW 1006,6 10 0,0
16.10.2019 01:00:00 12,9 12,4 12,6 15 8 22 12 SW 1006,5 10 0,0
16.10.2019 00:00:00 13,4 12,9 13,2 13 7 22 12 SSW 1006,5 4,4 0,4
15.10.2019 23:00:00 13,3 12,8 13,0 9 5 14 8 S 1006,6 4,7 0,0
15.10.2019 22:00:00 13,3 12,5 12,7 8 4 11 6 S 1006,4 8 0,0
15.10.2019 21:00:00 13,4 13,1 12,9 5 3 18 10 S 1006,1 7 0,1
15.10.2019 20:00:00 14,0 13,4 13,7 9 5 18 10 SW 1005,8 10 0,1
15.10.2019 19:00:00 14,8 13,6 14,5 11 6 18 10 SSW 1005,7 10 0,0
15.10.2019 18:00:00 15,3 13,6 15,1 11 6 22 12 SSW 1005,2 10 0,0
15.10.2019 17:00:00 15,8 14,0 15,7 11 6 22 12 SSW 1005,1 10 0,0
15.10.2019 16:00:00 15,9 14,0 16,0 15 8 25 14 SSW 1005,1 10 0,0
15.10.2019 15:00:00 15,5 13,8 15,8 16 9 25 14 S 1005,2 10 0,0
15.10.2019 14:00:00 15,7 13,7 15,7 18 10 32 18 SSW 1005,3 10 0,0
15.10.2019 13:00:00 16,6 14,5 - 18 10 32 18 SSW 1004,7 10 0,0
15.10.2019 12:00:00 15,2 13,8 15,2 16 9 29 16 SSW 1005,2 10 0,0
15.10.2019 11:00:00 15,1 13,7 15,2 15 8 25 14 SSW 1004,6 10 0,0
15.10.2019 10:00:00 15,2 13,7 15,5 13 7 25 14 SSW 1004,1 10 0,0
15.10.2019 09:00:00 13,7 12,9 12,9 13 7 22 12 S 1004,1 10 0,0
15.10.2019 08:00:00 13,2 12,6 12,2 9 5 18 10 SSW 1003,6 10 0,0
15.10.2019 07:00:00 13,9 12,8 13,2 11 6 22 12 SSW 1003,5 10 0,0
15.10.2019 06:00:00 14,9 13,3 14,0 15 8 22 12 S 1003,7 10 0,0
15.10.2019 05:00:00 14,9 13,4 14,2 11 6 25 14 S 1002,9 10 0,0
15.10.2019 04:00:00 15,4 13,6 14,4 15 8 25 14 SSE 1003,6 10 0,0
15.10.2019 03:00:00 15,1 13,5 14,4 15 8 29 16 SSE 1003,6 10 0,0
15.10.2019 02:00:00 15,5 13,8 14,5 18 10 25 14 SE 1003,8 10 0,0
15.10.2019 01:00:00 15,1 13,9 14,5 15 8 25 14 SE 1004,5 10 0,0
15.10.2019 00:00:00 15,0 13,8 14,3 15 8 29 16 SE 1005,7 10 0,0
14.10.2019 23:00:00 15,0 13,5 14,5 22 12 32 18 ESE 1005,6 10 0,0
14.10.2019 22:00:00 14,8 13,2 14,1 22 12 40 21 ESE 1006,1 10 0,0
14.10.2019 21:00:00 13,7 12,5 13,0 24 13 32 18 E 1007,1 10 0,0
14.10.2019 20:00:00 13,5 12,1 12,8 21 11 32 18 E 1008,2 10 0,0
14.10.2019 19:00:00 13,2 11,9 12,7 26 14 36 19 E 1007,9 10 0,0
14.10.2019 18:00:00 12,9 12,0 12,6 22 12 36 19 E 1008,7 10 3,2
14.10.2019 17:00:00 13,5 11,2 13,3 21 11 32 18 E 1009,8 10 0,0
14.10.2019 16:00:00 13,5 11,9 13,5 16 9 22 12 ENE 1010,8 10 0,0
14.10.2019 15:00:00 13,4 12,0 13,3 11 6 18 10 E 1011,5 10 0,3
14.10.2019 14:00:00 13,5 11,7 13,7 8 4 11 6 ENE 1013,2 10 0,0
14.10.2019 13:00:00 13,4 11,5 13,5 4 2 14 8 - 1013,8 10 0,0
14.10.2019 12:00:00 13,1 11,5 13,1 4 2 11 6 SSE 1013,7 10 0,0
14.10.2019 11:00:00 13,0 11,1 13,1 8 4 11 6 SE 1013,6 10 0,0
14.10.2019 10:00:00 12,4 10,7 12,5 5 3 11 6 SSE 1013,6 10 0,0
14.10.2019 09:00:00 11,3 10,5 10,9 8 4 14 8 S 1013,1 10 0,0
14.10.2019 08:00:00 11,1 10,2 10,4 9 5 14 8 SSW 1012,9 10 0,0
14.10.2019 07:00:00 11,1 10,2 10,5 9 5 14 8 S 1012,2 10 0,0
14.10.2019 06:00:00 10,8 10,0 10,0 8 4 14 8 SSW 1011,8 10 0,0
14.10.2019 05:00:00 11,3 10,0 10,4 13 7 22 12 SW 1011,5 10 0,0
14.10.2019 04:00:00 11,2 9,8 10,4 13 7 25 14 SW 1010,9 10 0,0
14.10.2019 03:00:00 12,5 10,2 11,7 18 10 29 16 WSW 1010,6 10 0,0
14.10.2019 02:00:00 13,5 10,4 12,9 26 14 40 21 WSW 1009,7 10 0,0
14.10.2019 01:00:00 14,3 10,7 13,5 29 16 40 21 WSW 1008,6 10 0,0
14.10.2019 00:00:00 14,5 12,3 14,0 26 14 43 23 SW 1007,9 10 0,0
13.10.2019 23:00:00 15,4 13,1 14,7 29 16 47 25 SW 1006,9 10 0,0
13.10.2019 22:00:00 15,6 13,4 15,1 29 16 50 27 SW 1005,8 10 0,0
13.10.2019 21:00:00 16,3 14,1 16,0 34 18 50 27 SW 1004,8 10 0,0
13.10.2019 20:00:00 17,6 14,8 17,2 31 17 43 23 SW 1003,9 10 0,0
13.10.2019 19:00:00 18,2 15,3 17,7 34 18 50 27 SW 1003,7 10 0,0
13.10.2019 18:00:00 19,1 15,7 18,4 24 13 40 21 SSW 1002,3 10 0,0
13.10.2019 17:00:00 19,0 17,3 18,5 22 12 36 19 S 1003,0 10 0,1
13.10.2019 16:00:00 18,6 17,0 18,4 18 10 29 16 S 1003,2 10 0,0
13.10.2019 15:00:00 17,7 16,5 17,5 16 9 25 14 S 1003,8 10 0,0
13.10.2019 14:00:00 16,6 15,9 16,4 15 8 25 14 S 1004,6 9 0,1
13.10.2019 13:00:00 16,1 15,2 16,1 16 9 25 14 S 1005,1 10 0,0
13.10.2019 12:00:00 15,7 14,8 16,0 13 7 22 12 S 1006,2 9 0,0
13.10.2019 11:00:00 14,1 13,7 14,2 13 7 22 12 SSE 1006,4 5 0,0
13.10.2019 10:00:00 12,6 12,5 12,6 11 6 22 12 SE 1006,7 2,6 0,0
13.10.2019 09:00:00 11,5 11,4 11,6 13 7 22 12 ESE 1006,6 0,9 0,0
13.10.2019 08:00:00 11,1 11,0 11,1 15 8 22 12 ESE 1007,2 2,4 0,0
13.10.2019 07:00:00 11,0 10,7 11,0 9 5 18 10 E 1007,6 8 0,0
13.10.2019 06:00:00 10,9 10,7 10,8 9 5 14 8 E 1008,2 6 0,1
13.10.2019 05:00:00 10,6 10,4 10,6 11 6 14 8 E 1008,7 6 0,2
13.10.2019 04:00:00 10,6 10,2 10,6 8 4 14 8 E 1009,1 5 0,5
13.10.2019 03:00:00 11,0 10,5 10,8 9 5 14 8 SE 1009,5 7 0,6
13.10.2019 02:00:00 10,9 10,6 10,8 9 5 14 8 SE 1010,0 6 1,2
13.10.2019 01:00:00 11,0 10,8 10,9 11 6 18 10 SSE 1010,3 9 0,9
13.10.2019 00:00:00 11,3 11,1 11,2 9 5 14 8 S 1010,1 6 1,0
12.10.2019 23:00:00 11,3 11,1 11,2 8 4 14 8 S 1010,6 5 1,8
12.10.2019 22:00:00 11,4 11,2 11,3 9 5 18 10 S 1009,9 8 0,5
12.10.2019 21:00:00 11,5 11,3 11,5 9 5 18 10 S 1009,6 9 0,6
12.10.2019 20:00:00 11,8 11,4 11,7 11 6 18 10 S 1009,5 10 0,4
12.10.2019 19:00:00 12,0 11,5 11,8 8 4 14 8 SSW 1009,6 10 0,5
12.10.2019 18:00:00 12,2 11,3 12,1 11 6 22 12 SW 1009,4 10 0,3
12.10.2019 17:00:00 12,7 11,8 12,7 13 7 25 14 SW 1009,4 10 0,3
12.10.2019 16:00:00 13,2 11,2 13,3 16 9 32 18 SW 1009,0 10 0,1
12.10.2019 15:00:00 13,8 12,0 13,9 22 12 32 18 WSW 1009,1 10 0,0
12.10.2019 14:00:00 13,8 11,6 14,0 22 12 32 18 SW 1008,7 10 0,0
12.10.2019 13:00:00 13,6 11,5 13,5 22 12 32 18 SW 1008,3 10 0,0
12.10.2019 12:00:00 12,9 11,5 13,1 21 11 32 18 SW 1007,9 10 0,0
12.10.2019 11:00:00 12,2 11,1 12,2 16 9 25 14 SSW 1007,4 10 0,0
12.10.2019 10:00:00 11,4 10,2 11,4 18 10 29 16 SSW 1006,8 10 0,0
12.10.2019 09:00:00 11,0 9,7 10,9 15 8 25 14 SSW 1006,0 10 0,0
12.10.2019 08:00:00 10,7 10,4 10,6 11 6 18 10 SW 1005,8 10 0,2
12.10.2019 07:00:00 10,3 10,0 10,3 9 5 22 12 WSW 1005,4 3,5 0,4
12.10.2019 06:00:00 10,7 9,2 10,5 15 8 29 16 WSW 1005,5 10 0,5
12.10.2019 05:00:00 11,4 11,0 11,3 15 8 25 14 WSW 1005,3 4,0 0,7
12.10.2019 04:00:00 12,0 11,2 11,8 15 8 36 19 WSW 1004,9 10 0,2
12.10.2019 03:00:00 12,2 11,4 11,9 15 8 25 14 SW 1004,9 10 1,1
12.10.2019 02:00:00 12,6 11,9 12,4 18 10 29 16 SW 1004,4 10 0,8
12.10.2019 01:00:00 13,4 13,0 13,2 22 12 43 23 WSW 1003,9 6 4,2
12.10.2019 00:00:00 14,5 13,9 14,5 37 20 54 29 SW 1003,6 10 2,1
11.10.2019 23:00:00 15,0 14,0 14,7 39 21 61 33 SW 1003,2 10 0,3
11.10.2019 22:00:00 14,8 14,0 14,4 39 21 61 33 SW 1003,2 7 0,3
11.10.2019 21:00:00 14,3 13,7 14,0 37 20 54 29 SW 1003,1 6 0,7
11.10.2019 20:00:00 13,6 13,2 13,5 28 15 54 29 SSW 1003,5 3,4 1,3
11.10.2019 19:00:00 13,8 13,3 13,5 34 18 47 25 SSW 1003,8 10 1,3
11.10.2019 18:00:00 13,7 13,2 13,6 34 18 58 31 SSW 1004,2 3,1 1,2
11.10.2019 17:00:00 13,7 13,2 13,6 34 18 54 29 SSW 1004,4 3,2 1,1
11.10.2019 16:00:00 13,9 13,0 13,8 35 19 50 27 SSW 1004,8 10 0,0
11.10.2019 15:00:00 14,1 13,0 14,0 39 21 54 29 SSW 1005,5 10 0,1
11.10.2019 14:00:00 13,7 13,0 13,6 31 17 50 27 SSW 1005,8 6 0,4
11.10.2019 13:00:00 13,7 12,8 13,6 31 17 54 29 SSW 1006,4 10 0,1
11.10.2019 12:00:00 13,2 12,8 13,0 26 14 50 27 SSW 1006,5 4,3 4,8
11.10.2019 11:00:00 13,6 13,0 13,5 28 15 43 23 SSW 1006,9 8 0,4
11.10.2019 10:00:00 13,1 12,6 13,0 28 15 47 25 SSW 1007,2 8 1,5
11.10.2019 09:00:00 13,2 12,9 13,2 22 12 43 23 SSW 1006,9 9 2,3
11.10.2019 08:00:00 14,1 13,3 13,9 26 14 43 23 SW 1006,7 10 0,1
11.10.2019 07:00:00 14,2 13,5 14,0 29 16 43 23 SW 1007,0 10 0,1
11.10.2019 06:00:00 13,6 12,8 13,1 35 19 50 27 SW 1007,1 10 1,6
11.10.2019 05:00:00 12,6 11,8 12,4 37 20 54 29 SW 1007,1 5 1,1
11.10.2019 04:00:00 12,8 11,2 12,6 29 16 47 25 SSW 1007,2 10 0,1
11.10.2019 03:00:00 13,3 10,9 13,1 26 14 43 23 SSW 1007,6 10 0,0
11.10.2019 02:00:00 13,2 11,0 12,7 24 13 47 25 SSW 1008,3 10 0,0
11.10.2019 01:00:00 13,3 11,1 12,9 22 12 43 23 SSW 1008,6 10 0,0
11.10.2019 00:00:00 13,2 11,1 12,9 21 11 36 19 SSW 1009,2 10 0,0
10.10.2019 23:00:00 12,6 10,0 12,2 18 10 29 16 SSW 1009,7 10 0,0
10.10.2019 22:00:00 12,4 9,6 11,7 16 9 25 14 SSW 1010,1 10 0,0
10.10.2019 21:00:00 11,7 9,7 11,2 15 8 32 18 SSW 1010,5 10 0,0
10.10.2019 20:00:00 12,0 9,0 10,9 18 10 29 16 SW 1010,6 10 0,0
10.10.2019 19:00:00 11,7 8,4 11,0 21 11 36 19 WSW 1010,4 10 0,0
10.10.2019 18:00:00 12,8 8,2 12,4 25 14 36 19 WSW 1010,0 28 0,0
10.10.2019 17:00:00 13,2 8,9 12,9 29 16 43 23 WSW 1009,9 10 0,0
10.10.2019 16:00:00 13,8 9,1 13,9 34 18 58 31 WSW 1009,6 10 0,0
10.10.2019 15:00:00 14,5 8,9 15,0 34 18 50 27 W 1009,1 10 0,0
10.10.2019 14:00:00 14,0 9,2 13,7 34 18 50 27 W 1008,6 10 0,0
10.10.2019 13:00:00 14,0 9,2 14,3 35 19 50 27 WSW 1008,1 10 0,0
10.10.2019 12:00:00 12,5 9,1 11,8 28 15 47 25 WSW 1007,6 10 0,3
10.10.2019 11:00:00 13,2 9,8 13,2 29 16 50 27 WSW 1006,9 10 0,0
10.10.2019 10:00:00 11,9 10,2 11,7 16 9 25 14 SW 1006,3 10 0,0
10.10.2019 09:00:00 10,0 9,1 9,3 18 10 25 14 SSW 1005,5 10 0,0
10.10.2019 08:00:00 9,0 8,3 8,1 15 8 22 12 SSW 1004,9 10 0,0
10.10.2019 07:00:00 8,7 8,1 8,1 15 8 25 14 SSW 1004,3 10 0,0
10.10.2019 06:00:00 8,6 7,4 7,7 15 8 22 12 SSW 1004,0 10 0,0
10.10.2019 05:00:00 7,7 6,8 6,6 13 7 18 10 S 1003,6 10 0,0

tt = temperature
td = dewpoint
tt 5cm = temperature 5cm
ff = wind speed
fx = gusts
dd = wind direction
ppp = reduced air pressure
vv = visibility
rr = precipitation

Next stations